Location: ????????
(37.9614°N, 23.6389°E)
Time: 09:59:19
(UTC+00:00)

Daily predictions for brighter satellites

Satellite Brightness Start Highest point End
(mag) Time Altitude Azimuth Time Altitude Azimuth Time Altitude Azimuth
Cosmos 2058 Rocket 3.9 17:57:59 10° SSW 18:02:18 56° W 18:06:41 10° N
Cosmos 1680 Rocket 4.2 17:57:58 10° SSE 18:02:39 33° E 18:07:20 10° NE
OAO 3 Copernicus 4.5 17:59:33 10° W 18:04:32 62° S 18:09:30 10° ESE
DELTA 2 DEB (DPAF) 4.1 18:03:24 10° NNE 18:07:35 58° ESE 18:11:43 10° S
MOS 1-B 4.5 18:03:25 10° SSE 18:09:06 63° ENE 18:14:48 10° N
Kosmos-1783 4.5 18:10:52 10° WSW 18:12:26 24° WNW 18:13:43 10° N
SeaSat 1 2.7 18:08:19 10° SSE 18:13:12 71° WSW 18:18:06 10° NNW
Cosmos 1943 Rocket 2.3 18:10:55 10° NNW 18:16:33 65° ENE 18:22:07 10° SSE
USA 186 1.9 18:14:55 10° S 18:18:01 75° W 18:21:13 10° NNW
Okean-O 3.7 18:14:47 10° SE 18:18:35 29° ENE 18:22:25 10° N
Intercosmos 24 4.1 18:16:46 10° SSW 18:20:21 76° W 18:24:47 10° N
Terra 3.9 18:19:04 10° E 18:20:29 11° ENE 18:21:55 10° NE
Cosmos 1782 2.6 18:17:47 10° S 18:21:34 80° E 18:25:23 10° N
SPOT 5 4.2 18:18:20 10° ESE 18:21:48 21° ENE 18:25:12 10° NNE
Aureole 2 3.9 18:19:55 10° NNW 18:22:47 89° NE 18:25:40 10° SSE
Cosmos 1515 3.5 18:21:04 10° S 18:24:28 57° E 18:27:53 10° NNE
Centaur D AC-29 3.4 18:21:11 10° S 18:24:34 19° SE 18:31:17 10° E
Meteor 2-2 Rocket 4.4 18:19:51 10° S 18:25:51 75° E 18:31:52 10° NNE
CZ-4B R/B 3.4 18:22:17 10° S 18:27:39 73° WSW 18:32:58 10° NNW
Cosmos 2221 3.6 18:25:48 11° SE 18:29:09 26° E 18:32:46 10° NNE
Cosmos 2278 Rocket 2.9 18:24:51 10° NNW 18:30:22 55° WSW 18:35:51 10° S
Cosmos 1378 3.2 18:27:27 10° SSE 18:30:33 41° E 18:33:39 10° NNE
ATLAS 3B R/B 3.5 18:24:18 10° NNW 18:31:53 49° NE 18:38:21 14° ESE
CARTOSAT-1 3.6 18:29:33 10° S 18:33:49 84° WSW 18:38:06 10° NNW
PSLV R/B 3.7 18:31:19 10° SSE 18:35:05 89° WSW 18:38:50 10° NNW
Cosmos 1812 Rocket 3.5 18:33:01 10° S 18:37:27 88° E 18:41:52 10° N
Meteor 1-25 Rocket 4.4 18:39:14 10° NNW 18:44:49 73° W 18:50:28 10° S
Cosmos 921 Rocket 3.7 18:41:57 11° SSE 18:45:48 36° E 18:49:55 10° NNE
OAO 2 Rocket 3.6 18:44:06 10° W 18:49:17 56° S 18:52:46 20° ESE
ATLAS 5 CENTAUR R/B 4.1 18:47:30 10° WNW 18:52:06 26° WSW 18:57:23 10° SSW
MetOp-B 4.5 18:48:27 18° SE 18:52:13 49° ENE 18:57:21 10° N
Resurs 01 Rocket 2.9 18:54:42 10° SSW 18:58:51 39° W 19:03:01 10° NNW
ERS-1 Rocket 3.8 18:56:51 21° ESE 18:59:25 34° ENE 19:03:56 10° N
USA 308 3.0 18:57:46 10° WNW 19:00:25 38° SW 19:01:42 26° S
Cosmos 494 Rocket 4.4 18:57:18 17° SSE 19:00:49 40° ESE 19:05:34 10° NE
SL-16 R/B 2.4 18:55:57 10° SSW 19:01:35 75° WNW 19:07:17 10° NNE
Gbstr 26 Del rocket 4.1 19:00:47 10° WNW 19:06:39 51° SW 19:09:36 23° SSE
Lacrosse 5 rocket 4.4 19:05:24 10° WNW 19:08:27 19° NNW 19:11:29 10° NNE
CZ-4C R/B 3.6 19:04:45 10° N 19:08:31 65° WNW 19:12:25 10° SSW
Cosmos 1371 Rocket 4.1 19:08:41 10° NNW 19:14:01 65° ENE 19:16:44 29° SE
Cosmos 1726 4.1 19:13:17 10° NE 19:14:04 12° ENE 19:14:04 12° ENE
NOSS 3-1 (A) 4.2 19:07:26 10° NNW 19:15:13 90° WSW 19:21:24 24° SSE
Okean O Rocket 3.3 19:13:06 10° SSW 19:16:58 29° W 19:20:51 10° NW
USA 290 2.4 19:13:52 10° NNW 19:17:04 64° WSW 19:18:00 40° S
Cosmos 2369 Rocket 2.8 19:12:52 10° N 19:18:09 41° ENE 19:20:33 27° ESE
Cosmos 44 3.3 19:14:24 10° NNW 19:19:07 60° ENE 19:20:48 35° ESE
GEOS 3 Rocket 3.5 19:14:44 10° NE 19:19:51 63° ESE 19:24:52 10° SSW
Cosmos 1842 Rocket 4.1 19:19:12 35° SE 19:20:14 41° E 19:24:24 10° NNE
SPOT 3 Rocket 4.2 19:21:03 29° ESE 19:22:52 38° ENE 19:27:35 10° N
Cosmos 1420 Rocket 4.0 19:18:46 10° NNW 19:24:06 84° WSW 19:26:50 30° SSE
BREEZE-M DEB (TANK) 4.5 19:02:27 10° SSW 19:25:16 57° SE 19:30:14 10° ENE
SL-8 R/B 4.0 19:25:41 10° WSW 19:30:23 65° NNW 19:35:08 10° NE
MOS 1 Rocket 4.1 19:30:48 33° ESE 19:32:13 41° ENE 19:37:05 10° N
Cosmos 2344 4.5 19:26:03 10° NW 19:35:07 73° WSW 19:43:38 24° SSE
Lacrosse 5 2.0 19:34:03 10° NW 19:39:07 65° SW 19:40:44 41° SSE
Spot 2 Rocket 3.5 19:37:40 42° SE 19:39:14 63° ENE 19:44:13 10° N
Cosmos 1943 3.1 19:39:14 23° S 19:42:53 73° ESE 19:48:32 10° NNE
Cosmos 1656 Rocket 3.5 19:38:01 10° NNW 19:43:31 88° ENE 19:45:26 43° SSE
Cosmos 1766 Rocket 3.9 19:45:34 10° NNW 19:49:58 63° W 19:51:19 41° SSW
Cosmos 1743 2.9 19:48:12 10° NNW 19:51:45 57° W 19:52:02 55° WSW
Cosmos 2279 Rocket 4.0 19:46:23 10° N 19:52:32 65° E 19:54:27 44° SE
Cosmos 1634 Rocket 4.0 19:50:01 10° N 19:56:17 77° W 19:59:05 35° S
Terra 1.8 19:56:16 50° S 19:57:25 73° WSW 20:02:08 10° NNW
SPOT 5 4.1 19:57:28 23° SW 19:59:37 34° W 20:03:44 10° NNW
Sich 1 4.3 19:57:44 10° NNE 20:01:01 28° ENE 20:01:01 28° ENE
Aureole 3 Rocket 4.4 19:57:52 10° NNW 20:01:47 39° W 20:04:23 24° SSW
Ariane Rocket 2.9 20:00:34 52° S 20:01:48 81° WSW 20:06:54 10° NNW
Cosmos 2084 3.3 19:58:20 10° NW 20:01:46 66° W 20:01:46 66° W
Meteor 1-10 Rocket 4.2 20:07:55 43° SSW 20:09:57 84° W 20:15:39 10° N
Cosmos 468 4.4 20:09:28 50° SSW 20:10:54 86° WNW 20:16:07 10° NNE
Cosmos 1452 Rocket 3.5 20:09:02 10° NNW 20:14:14 63° ENE 20:14:41 60° E
Cosmos 1340 Rocket 4.1 20:17:38 31° NE 20:17:38 31° NE 20:20:01 10° NNE
Meteor 1-19 Rocket 4.3 20:16:48 60° SE 20:17:40 68° E 20:23:28 10° NNE
Cosmos 1408 Rocket 3.6 20:15:39 10° N 20:19:49 76° NNE 20:19:49 76° NNE
ATLAS 3B R/B 3.9 20:15:25 10° NW 20:22:31 39° WSW 20:25:36 28° SSW
Meteor 1-11 Rocket 3.6 20:19:00 10° N 20:24:41 84° E 20:25:26 68° SSE
Landsat 5 4.0 20:21:57 10° N 20:25:15 51° NW 20:25:15 51° NW
Chandra Rocket (1) 4.0 20:11:31 10° WSW 20:31:46 47° S 20:32:49 46° S
USA 59 Rocket 2.4 20:29:39 10° N 20:32:19 16° NE 20:33:06 15° ENE
MetOp-A 3.8 20:32:45 73° NW 20:32:45 73° NW 20:37:03 10° NNW
Cosmos 2180 Rocket 4.4 20:26:26 10° N 20:32:37 83° W 20:33:43 62° S
FALCON 9 R/B 3.8 20:26:19 10° W 20:33:00 67° S 20:58:59 10° ESE
USA 281 3.2 20:32:46 57° S 20:34:16 79° WSW 20:40:53 10° NNW
Meteor 2-17 Rocket 4.3 20:38:20 69° S 20:39:10 89° E 20:45:14 10° N
ISS -1.3 20:38:20 10° NNW 20:40:03 22° N 20:40:03 22° N
Cosmos 1603 4.4 20:45:53 32° WSW 20:48:13 50° WNW 20:53:45 10° NNE
Cosmos 1151 Rocket 3.9 20:53:46 48° N 20:53:46 48° N 20:56:59 10° N
Cosmos 1500 Rocket 4.4 20:49:00 10° NNW 20:52:21 46° NW 20:52:21 46° NW
Cosmos 614 Rocket 4.3 21:00:51 58° NE 21:00:51 58° NE 21:05:03 10° NNE
Cosmos 2369 Rocket 3.7 20:57:25 10° NW 21:01:52 25° WSW 21:02:20 25° WSW
Cosmos 1302 Rocket 4.3 20:57:37 10° NNW 21:02:10 62° NNE 21:02:10 62° NNE
Cosmos 1428 Rocket 4.5 21:12:27 69° WSW 21:12:50 71° W 21:18:57 10° N
Cosmos 1092 Rocket 3.8 21:15:01 88° SSW 21:15:04 90° W 21:21:24 10° N
ARIANE 5 R/B 3.8 21:22:29 39° NNW 21:22:29 39° NNW 21:25:17 10° NNW
NOSS 3-3 (A) 4.1 21:31:24 55° NE 21:31:24 55° NE 21:36:10 10° NE
Meteor 2-4 Rocket 4.2 21:37:30 55° WNW 21:37:30 55° WNW 21:43:19 10° N
Cosmos 1656 4.3 21:33:28 10° NNW 21:38:08 49° NE 21:38:08 49° NE
USA 267 3.1 21:34:01 10° NE 21:40:35 88° SE 21:40:41 87° S
Cosmos 1697 Rocket 4.0 21:53:25 10° N 21:58:21 31° ENE 21:58:37 30° ENE
NOSS 3-3 (C) 4.1 21:58:56 61° NNW 21:58:56 61° NNW 22:04:26 10° NNE
BREEZE-M DEB (TANK) 4.1 21:59:05 44° W 22:00:50 65° NNW 22:18:09 10° ENE
Cosmos 1980 Rocket 4.4 22:00:49 10° NNE 22:04:31 17° NE 22:06:35 15° ENE
Lacrosse 4 Rocket 3.5 22:06:03 10° NNW 22:07:46 24° NNW 22:07:46 24° NNW
USA 59 Rocket 1.9 22:17:37 10° NW 22:19:39 29° NW 22:19:39 29° NW
S3M 4.0 22:28:40 10° N 22:34:39 79° N 22:34:39 79° N
Cosmos 2315 Rocket 4.2 22:31:57 10° N 22:37:59 62° ENE 22:37:59 62° ENE
Cosmos 2082 Rocket 3.2 22:39:46 37° ENE 22:39:46 37° ENE 22:43:49 10° NE
Cosmos 2285 Rocket 4.0 22:39:30 74° NNW 22:39:30 74° NNW 22:45:25 10° NNE
Cosmos 1833 Rocket 3.4 22:43:27 45° NW 22:43:27 45° NW 22:48:24 10° N
H-2A R/B 3.8 22:47:30 10° N 22:50:06 30° NNW 22:50:06 30° NNW
CZ-2D R/B 4.4 22:59:15 10° ENE 23:01:36 13° E 23:02:03 13° E
Cosmos 1655 Rocket 4.2 23:05:23 63° WNW 23:05:23 63° WNW 23:11:26 10° N
Cosmos 44 Rocket 4.3 23:02:10 10° NNW 23:05:31 42° N 23:05:31 42° N
DELTA 2 R/B (1) 4.4 23:15:37 42° ENE 23:15:37 42° ENE 23:19:16 10° ENE
Resurs 1-4 Rocket 3.9 23:16:07 10° NE 23:19:54 20° E 23:20:06 20° E
Cosmos 676 Rocket 4.2 23:39:22 71° N 23:39:22 71° N 23:44:08 10° NNE
NOSS 3-4 (A) 3.8 23:34:46 10° NNW 23:41:59 89° WSW 23:44:31 48° SSE
NOSS 3-4 (C) 3.8 23:34:48 10° NNW 23:42:00 89° WSW 23:44:37 47° SSE
Cosmos 1697 Rocket 4.1 23:37:14 10° NW 23:40:19 27° WNW 23:40:19 27° WNW
Okean 1-7 4.0 23:44:39 44° NNE 23:44:39 44° NNE 23:47:40 10° N
Cosmos 1953 3.9 23:40:58 10° N 23:43:33 32° NE 23:43:33 32° NE
Cosmos 1954 Rocket 4.4 23:46:04 57° NW 23:46:04 57° NW 23:50:52 10° N
NPP 4.2 23:42:37 10° NNE 23:47:49 47° E 23:48:04 47° ESE
Cosmos 1980 Rocket 2.4 23:43:24 10° NNW 23:48:19 61° WNW 23:48:19 61° WNW
COSMOS 2406 3.5 23:49:06 58° WNW 23:49:08 58° WNW 23:54:50 10° NNE
Cosmos 468 Rocket 4.0 23:44:05 10° NNW 23:49:05 77° NNE 23:49:05 77° NNE
SJ 16-02 3.6 23:51:35 16° E 23:51:40 16° E 23:54:14 10° ENE
